FW4376 Weather Reports


time (UTC)temp
F
wind
direction
speed
knots
gust
knots
rain 1hr
in
rain 24hr
in
rain mn
in
humidity
%
barometer
mb
20260905171505 95 109 0.9 5.2 0.00 0.00 0.00 56 1014.1
20260905170004 95 158 0.0 4.3 0.00 0.00 0.00 56 1014.1
20260905164502 94 97 0.0 1.7 0.00 0.00 0.00 59 1014.3
20260905163059 93 308 0.9 4.3 0.00 0.00 0.00 58 1014.4
20260905161557 92 118 0.9 4.3 0.00 0.00 0.00 60 1014.3
20260905154553 91 354 0.9 4.3 0.00 0.00 0.00 62 1014.4
20260905153059 90 232 0.9 3.5 0.00 0.00 0.00 65 1014.3
20260905151548 90 191 0.9 3.5 0.00 0.00 0.00 66 1014.3
20260905150046 89 247 1.7 4.3 0.00 0.00 0.00 66 1014.3
20260905144547 89 259 1.7 4.3 0.00 0.00 0.00 68 1014.1
20260905143041 87 231 0.9 3.5 0.00 0.00 0.00 69 1014.1
20260905141537 86 246 1.7 2.6 0.00 0.00 0.00 71 1014.1
20260905140033 84 183 0.0 2.6 0.00 0.00 0.00 75 1014.2
20260905134530 82 241 0.0 3.5 0.00 0.00 0.00 78 1014.1
20260905133032 80 269 0.0 0.9 0.00 0.00 0.00 79 1014.0
20260905131533 79 264 0.0 1.7 0.00 0.00 0.00 81 1013.7
20260905130035 78 193 0.0 1.7 0.00 0.00 0.00 81 1013.5
20260905124523 78 117 0.0 0.9 0.00 0.00 0.00 82 1013.3
20260905123020 77 118 0.0 0.0 0.00 0.00 0.00 82 1013.4
20260905121521 77 146 0.0 0.0 0.00 0.00 0.00 82 1013.3
20260905120019 78 166 0.0 0.9 0.00 0.00 0.00 82 1013.2
20260905114519 78 228 0.0 0.9 0.00 0.00 0.00 82 1013.2
20260905113018 78 245 0.0 0.9 0.00 0.00 0.00 81 1013.2
20260905111525 78 245 0.0 0.9 0.00 0.00 0.00 81 1013.1
20260905110017 78 245 0.0 0.9 0.00 0.00 0.00 81 1013.0
20260905104516 78 245 0.0 0.0 0.00 0.00 0.00 81 1013.0
20260905103016 79 245 0.0 0.9 0.00 0.00 0.00 80 1012.9
20260905101513 79 245 0.0 1.7 0.00 0.00 0.00 80 1013.0
20260905100018 79 243 0.0 0.9 0.00 0.00 0.00 79 1013.0
20260905094514 79 245 0.0 0.9 0.00 0.00 0.00 79 1012.9
20260905093010 79 239 0.0 1.7 0.00 0.00 0.00 78 1012.7
20260905091510 79 211 0.0 0.0 0.00 0.00 0.00 78 1012.6
20260905090008 80 216 0.0 0.0 0.00 0.00 0.00 78 1012.6
20260905084506 80 236 0.0 0.0 0.00 0.00 0.00 77 1012.5
20260905083004 81 231 0.0 0.9 0.00 0.00 0.00 77 1012.4
20260905081503 81 200 0.0 0.9 0.00 0.00 0.00 76 1012.4
20260905080003 81 256 0.0 1.7 0.00 0.00 0.00 76 1012.4
20260905074605 81 233 0.0 0.9 0.00 0.00 0.00 76 1012.5
20260905074503 81 238 0.0 0.9 0.00 0.00 0.00 76 1012.5
20260905073105 81 225 0.0 1.7 0.00 0.00 0.00 75 1012.6
20260905071558 82 245 0.0 0.9 0.00 0.00 0.00 74 1012.8
20260905070055 82 243 0.0 0.9 0.00 0.00 0.00 74 1013.0
20260905064554 82 240 0.0 0.9 0.00 0.00 0.00 73 1013.2
20260905063054 83 245 0.0 0.9 0.00 0.00 0.00 72 1013.3
20260905061551 83 238 0.0 1.7 0.00 0.00 0.00 71 1013.3
20260905060050 83 286 0.0 1.7 0.00 0.00 0.00 71 1013.0
20260905054549 84 236 0.0 2.6 0.00 0.00 0.00 71 1012.8
20260905053110 84 39 0.0 3.5 0.00 0.00 0.00 70 1012.7
20260905051543 84 245 0.0 0.9 0.00 0.00 0.00 70 1012.5
20260905050041 84 194 0.0 2.6 0.00 0.00 0.00 70 1012.7
20260905044541 84 215 0.0 1.7 0.00 0.00 0.00 69 1012.8
20260905043040 85 131 0.0 1.7 0.00 0.00 0.00 68 1012.6
20260905041544 85 130 0.0 1.7 0.00 0.00 0.00 68 1012.6
20260905040039 86 109 0.0 2.6 0.00 0.00 0.00 67 1012.7
20260905034539 86 108 0.0 1.7 0.00 0.00 0.00 66 1012.9
20260905033049 87 192 0.9 2.6 0.00 0.00 0.00 65 1012.9
20260905031543 88 140 0.9 2.6 0.00 0.00 0.00 64 1012.8
20260905030040 88 240 0.0 1.7 0.00 0.00 0.00 64 1012.7
20260905024537 88 139 0.0 2.6 0.00 0.00 0.00 63 1012.6
20260905023040 88 104 0.0 1.7 0.00 0.00 0.00 63 1012.3
20260905021538 89 113 0.0 2.6 0.00 0.00 0.00 62 1012.1
20260905020036 89 104 0.0 2.6 0.00 0.00 0.00 61 1012.0
20260905014536 90 111 0.0 1.7 0.00 0.00 0.00 61 1011.7
20260905013034 90 113 0.0 1.7 0.00 0.00 0.00 60 1011.5
20260905011535 91 185 0.0 1.7 0.00 0.00 0.00 59 1011.4
20260905010033 92 123 0.9 2.6 0.00 0.00 0.00 57 1011.1
20260905004535 92 120 0.0 4.3 0.00 0.00 0.00 56 1011.0
20260905003033 93 136 0.9 3.5 0.00 0.00 0.00 55 1011.1
20260905001532 93 164 0.9 5.2 0.00 0.00 0.00 55 1010.8
20260905000030 94 173 0.9 3.5 0.00 0.00 0.00 55 1010.8
20260904234529 95 157 1.7 7.0 0.00 0.00 0.00 55 1010.9
20260904233029 96 177 2.6 7.0 0.00 0.00 0.00 54 1010.7
20260904231535 97 107 1.7 5.2 0.00 0.00 0.00 53 1010.7
20260904230026 99 268 0.9 3.5 0.00 0.00 0.00 49 1010.7
20260904224525 99 153 0.0 4.3 0.00 0.00 0.00 46 1010.8
20260904223028 99 277 0.9 5.2 0.00 0.00 0.00 45 1010.9
20260904221522 99 133 0.9 6.1 0.00 0.00 0.00 46 1011.0
20260904220020 98 120 0.9 4.3 0.00 0.00 0.00 46 1010.9
20260904214531 99 148 0.9 4.3 0.00 0.00 0.00 46 1011.2
20260904213030 99 231 0.9 4.3 0.00 0.00 0.00 47 1011.3
20260904211521 97 183 0.9 6.1 0.00 0.00 0.00 49 1011.5
20260904210024 96 127 0.9 5.2 0.00 0.00 0.00 49 1011.7
20260904204521 98 115 2.6 4.3 0.00 0.00 0.00 49 1011.8
20260904203008 99 77 1.7 5.2 0.00 0.00 0.00 50 1012.1
20260904201504 98 176 1.7 4.3 0.00 0.00 0.00 51 1012.2
20260904200001 97 105 2.6 6.1 0.00 0.00 0.00 52 1012.4
20260904194608 97 103 2.6 6.1 0.00 0.00 0.00 51 1012.6
20260904193055 96 131 0.0 4.3 0.00 0.00 0.00 53 1012.7
20260904191556 96 124 1.7 4.3 0.00 0.00 0.00 52 1012.8
20260904190052 95 191 1.7 5.2 0.00 0.00 0.00 53 1013.0
20260904184555 95 66 1.7 7.0 0.00 0.00 0.00 54 1013.2
20260904183050 96 139 2.6 7.0 0.00 0.00 0.00 52 1013.5
20260904181548 95 217 1.7 7.0 0.00 0.00 0.00 54 1013.7
20260904180047 95 225 2.6 6.1 0.00 0.00 0.00 56 1013.8
20260904174547 94 97 0.9 6.1 0.00 0.00 0.00 57 1014.2
20260904173101 94 250 2.6 6.1 0.00 0.00 0.00 54 1014.3
20260904171545 93 146 0.9 5.2 0.00 0.00 0.00 56 1014.4